#timestamp,LO_Frequency,Hit,StdDev 
1524268815.9,286046997.5,N
1524268835.7,286046997.1,N
1524268855.5,286046997.4,N
1524268875.4,286046997.1,N
1524268895.2,286046997.3,N
1524268915.1,286046997.0,N
1524268916.0,286046997.0,N
1524268935.8,286046999.5,N
1524268955.6,286046996.5,N
1524268975.5,286046999.6,N
1524268995.3,286047000.8,N
1524269015.1,286046998.9,N
1524269035.9,286046996.5,N
1524269055.7,286046996.8,N
1524269075.6,286046998.9,N
1524269095.4,286046997.6,N
1524269115.2,286046996.7,N
1524269135.1,286046994.9,Y
1524269136.0,286046994.9,P
1524269155.8,286046998.6,N
1524269175.7,286046998.1,N
1524269195.5,286047000.6,N
1524269215.3,286047002.5,N
1524269235.2,286047000.4,N
1524269255.0,286047000.3,N
1524269255.9,286047000.3,N
1524269275.8,286047002.1,N
1524269295.6,286047002.0,N
1524269315.4,286046999.7,N
1524269335.3,286047002.7,N
1524269355.1,286047002.5,N
1524269375.8,286047002.1,N
1524269395.7,286047000.2,N
1524269415.5,286047000.0,N
1524269435.4,286046999.9,N
1524269455.2,286047000.1,N
1524269475.0,286047002.7,N
1524269475.9,286047002.7,N
1524269495.8,286047002.6,N
1524269515.6,286047002.2,N
1524269535.5,286046999.8,N
1524269555.3,286047002.8,N
1524269575.1,286046999.7,N
1524269595.9,286047002.3,N
1524269615.7,286047002.7,N
1524269635.5,286047002.3,N
1524269655.4,286047001.5,N
1524269675.2,286047002.3,N
1524269695.1,286047001.9,N
1524269696.0,286047001.9,N
1524269715.8,286047004.1,Y
1524269735.6,286047002.8,P
1524269755.5,286046999.7,N
1524269775.3,286047000.7,N
1524269795.2,286047000.9,N
1524269815.9,286047000.7,N
1524269835.7,286047001.1,N
1524269855.6,286046999.9,N
1524269875.4,286047002.3,N
1524269895.2,286047001.8,N
1524269915.1,286047002.2,N
1524269916.0,286047002.2,N
1524269935.8,286047002.5,N
1524269955.7,286046999.8,N
1524269975.5,286047000.7,N
1524269995.3,286046998.7,N
1524270015.2,286047000.6,N
1524270035.0,286047002.4,N
1524270035.9,286047002.4,N
1524270055.7,286047002.6,N
1524270075.6,286047002.4,N
1524270095.4,286047002.2,N
1524270115.3,286047002.0,N
1524270135.1,286047002.3,N
1524270136.0,286047002.3,N
1524270155.8,286047002.0,N
1524270175.7,286047003.8,Y
1524270195.5,286047002.8,P
1524270215.3,286047000.6,N
1524270235.2,286047000.2,N
1524270255.0,286047000.2,N
1524270255.9,286047000.2,N
1524270275.8,286047000.1,N
1524270295.6,286046999.7,N
1524270315.4,286046998.3,N
1524270335.3,286047001.2,N
1524270355.1,286046998.7,N
1524270375.8,286046998.4,N
1524270395.7,286046998.8,N
1524270415.5,286046999.3,N
1524270435.4,286046996.8,N
1524270455.2,286046997.8,N
1524270475.0,286046997.9,N
1524270475.9,286046997.9,N
1524270495.8,286046996.8,N
1524270515.6,286046999.4,N
1524270535.5,286046996.7,N
1524270555.3,286046999.5,N
1524270575.1,286046998.6,N
1524270595.9,286046999.5,N
1524270615.7,286046997.7,N
1524270635.5,286046995.0,Y
1524270655.4,286046996.8,P
1524270675.2,286046997.3,N
1524270695.1,286046996.5,P
1524270696.0,286046996.5,Y
1524270715.8,286047000.6,P
1524270735.6,286047001.1,N
1524270755.5,286046999.9,N
1524270775.3,286047001.1,N
1524270795.1,286046998.4,N
1524270815.9,286046998.8,N
1524270835.7,286047001.1,N
1524270855.6,286046998.5,N
1524270875.4,286046998.4,N
1524270895.2,286046998.4,N
1524270915.1,286046999.0,N
1524270916.0,286046999.0,N
1524270935.8,286046999.3,N
1524270955.7,286046998.9,N
1524270975.5,286046998.8,N
1524270995.3,286046999.0,N
1524271015.2,286046998.5,N
1524271035.0,286047001.1,N
1524271035.9,286047001.1,N
1524271055.7,286047000.4,N
1524271075.6,286047000.7,N
1524271095.4,286046998.6,N
1524271115.3,286047001.0,N
1524271135.1,286047000.3,N
1524271136.0,286047000.3,N
1524271155.8,286047000.2,N
1524271175.7,286046998.2,N
1524271195.5,286047001.2,N
1524271215.3,286046999.0,N
1524271235.2,286046999.6,N
1524271255.0,286046997.2,N
1524271255.9,286046997.2,N
1524271275.8,286046997.4,N
1524271295.6,286046997.5,N
1524271315.4,286046997.2,N
1524271335.3,286046997.1,N
1524271355.1,286046997.2,N
1524271375.9,286046995.3,Y
1524271395.7,286046997.7,P
1524271415.5,286046999.5,N
1524271435.4,286046997.0,P
1524271455.2,286046997.7,N
1524271505.1,286046999.6,E
1524271515.9,286046999.3,N
1524271535.7,286046999.1,P
1524271555.6,286046999.6,P
1524271575.4,286046997.7,Y
1524271595.2,286046999.2,P
1524271615.1,286046997.3,P
1524271616.0,286046997.3,N
1524271635.8,286046995.0,Y
1524271655.7,286046996.8,P
1524271675.5,286046998.6,N
1524271695.3,286046998.1,N
1524271715.2,286046999.4,N
1524271735.0,286046999.4,N
1524271735.9,286046999.4,N
1524271755.8,286046998.8,N
1524271775.6,286046998.3,N
1524271795.4,286046999.3,N
1524271815.3,286046999.4,N
1524271835.1,286046996.9,Y
1524271855.9,286047001.1,P
1524271875.7,286047000.5,N
1524271895.5,286047002.0,N
1524271915.4,286047004.3,Y
1524271935.2,286047001.7,P
1524271955.0,286046999.9,N
1524271955.9,286046999.9,N
1524271975.8,286047001.2,N
1524271995.6,286046997.1,Y
1524272015.5,286046995.3,P
1524272035.3,286046995.5,N
1524272055.1,286046996.1,N
1524272075.9,286046995.2,N
1524272095.7,286046993.7,Y
1524272115.6,286046996.6,P
1524272135.4,286046999.1,P
1524272155.2,286046998.5,N
1524272175.1,286046996.6,Y
1524272176.0,286046996.6,P
1524272195.8,286047002.5,P
1524272215.7,286047002.0,N
1524272235.5,286046999.9,N
1524272255.3,286047000.3,N
1524272275.2,286047002.4,N
1524272295.0,286047002.2,N
1524272295.9,286047002.2,N
1524272315.7,286047003.7,N
1524272335.6,286047003.6,N
1524272355.4,286047002.1,N
1524272375.3,286047002.6,N
1524272395.1,286047003.6,N
1524272396.0,286047003.6,N
